Location: Krakow
(50.0830°N, 19.9170°E)
Time: 14:00:50
(UTC+02:00)

Tiros 1 - Pass Details

Date: 30 January 2023
Orbit: 627 x 662 km, 48.4° (Epoch: 01 April)

Event Time Altitude Azimuth Distance (km) Brightness Sun altitude
Exits shadow 05:07:18 52° 250° (WSW) 805 7.2 -20.9°
Maximum altitude 05:08:20 71° 187° (S) 685 7.2 -20.7°
Drops below altitude 10° 05:13:02 10° 104° (ESE) 2,051 10.9 -19.9°
Sets 05:15:23 0° 102° (ESE) 2,967 12.1 -19.6°
